This is the latest recevied weather packets stored in our database for station/object HS8AFA. If no packets are shown the sender has not sent any weather packets the latest 10 day(s).
| Time | Temp. | Humidity | Pressure | Rain* | Wind** | Luminosity | Snow |
|---|---|---|---|---|---|---|---|
| 1778084460 | 30° C | 100% | 1009.6 hPa | 0 mm | - | - | - |
| 1778083816 | 30° C | 100% | 1009.7 hPa | 0 mm | - | - | - |
| 1778082617 | 30° C | 100% | 1009.5 hPa | 0 mm | - | - | - |
| 1778080220 | 30° C | 100% | 1009.3 hPa | 0 mm | - | - | - |
| 1778079616 | 30° C | 100% | 1009.2 hPa | 0 mm | - | - | - |
| 1778079018 | 30° C | 100% | 1009 hPa | 0 mm | - | - | - |
| 1778071817 | 31.11° C | 100% | 1007.7 hPa | 0 mm | - | - | - |
| 1778070020 | 31.11° C | 100% | 1007.4 hPa | 0 mm | - | - | - |
| 1778068816 | 31.11° C | 100% | 1007.2 hPa | 0 mm | - | - | - |
| 1778062241 | 32.78° C | 100% | 1007.4 hPa | 0 mm | - | - | - |
| 1778061016 | 32.78° C | 100% | 1007.4 hPa | 0 mm | - | - | - |
| 1778060417 | 32.22° C | 100% | 1007.4 hPa | 0 mm | - | - | - |
| 1778059220 | 32.22° C | 100% | 1007.2 hPa | 0 mm | - | - | - |
| 1778055640 | 32.78° C | 100% | 1007.3 hPa | 0 mm | - | - | - |
| 1778053817 | 33.33° C | 100% | 1007.5 hPa | 0 mm | - | - | - |
| 1778050816 | 35° C | 100% | 1007.9 hPa | 0 mm | - | - | - |
| 1778050216 | 35.56° C | 99% | 1007.9 hPa | 0 mm | - | - | - |
| 1778049018 | 35.56° C | 100% | 1008.5 hPa | 0 mm | - | - | - |
| 1778047820 | 35° C | 100% | 1008.8 hPa | 0 mm | - | - | - |
| 1778046616 | 34.44° C | 100% | 1009.2 hPa | 0 mm | - | - | - |
| 1778045418 | 34.44° C | 100% | 1009.7 hPa | 0 mm | - | - | - |
| 1778038218 | 32.22° C | 100% | 1010.6 hPa | 0 mm | - | - | - |
| 1778033419 | 30.56° C | 100% | 1010.6 hPa | 0 mm | - | - | - |
| 1778030418 | 29.44° C | 100% | 1010.2 hPa | 0 mm | - | - | - |
| 1778028621 | 29.44° C | 100% | 1010.2 hPa | 0 mm | - | - | - |
* Rain latest hour (hover to see other rain measurements)
** Current wind speed in m/s (hover to see current wind gust speed)